• En España
  • Lista de países
  • Para 7 días
  • Temperatura del agua
  • Mapa Satelital
  • El tiempo en el mapa
  • Informadores
  • user-avatar
    Iniciar sesión

    Tiempo cada hora Lubango

    Hoy, 26 Mayo, Sábado

    Tiempo Temperatura Precipitaciones Viento Presión Humedad
    00:00 +13°C° 0 mm 2 mps 608 mmHg 51%
    01:00 +12°C° 0 mm 2 mps 607 mmHg 52%
    02:00 +12°C° 0 mm 2 mps 607 mmHg 53%
    03:00 +12°C° 0 mm 2 mps 607 mmHg 53%
    04:00 +12°C° 0 mm 2 mps 607 mmHg 54%
    05:00 +12°C° 0 mm 2 mps 607 mmHg 55%
    06:00 +12°C° 0 mm 2 mps 608 mmHg 56%
    07:00 +12°C° 0 mm 3 mps 608 mmHg 57%
    08:00 +16°C° 0 mm 3 mps 610 mmHg 49%
    09:00 +19°C° 0 mm 4 mps 611 mmHg 42%
    10:00 +22°C° 0 mm 4 mps 612 mmHg 35%
    11:00 +23°C° 0 mm 4 mps 612 mmHg 31%
    12:00 +25°C° 0 mm 3 mps 612 mmHg 28%
    13:00 +26°C° 0 mm 3 mps 612 mmHg 25%
    14:00 +26°C° 0 mm 3 mps 612 mmHg 25%
    15:00 +26°C° 0 mm 3 mps 611 mmHg 26%
    16:00 +26°C° 0 mm 3 mps 611 mmHg 26%
    17:00 +23°C° 0 mm 2 mps 610 mmHg 33%
    18:00 +19°C° 0 mm 2 mps 609 mmHg 40%
    19:00 +16°C° 0 mm 1 mps 609 mmHg 48%
    20:00 +15°C° 0 mm 1 mps 609 mmHg 50%
    21:00 +14°C° 0 mm 1 mps 609 mmHg 52%
    22:00 +14°C° 0 mm 1 mps 609 mmHg 55%
    23:00 +13°C° 0 mm 1 mps 609 mmHg 56%

    Mañana, 27 Mayo, Domingo

    Tiempo Temperatura Precipitaciones Viento Presión Humedad
    00:00 +13°C° 0 mm 1 mps 609 mmHg 57%
    01:00 +13°C° 0 mm 2 mps 609 mmHg 57%
    02:00 +12°C° 0 mm 2 mps 609 mmHg 58%
    03:00 +12°C° 0 mm 2 mps 608 mmHg 59%
    04:00 +12°C° 0 mm 2 mps 608 mmHg 60%
    05:00 +12°C° 0 mm 2 mps 609 mmHg 60%
    06:00 +12°C° 0 mm 2 mps 609 mmHg 60%
    07:00 +12°C° 0 mm 2 mps 609 mmHg 60%
    08:00 +16°C° 0 mm 3 mps 611 mmHg 49%
    09:00 +19°C° 0 mm 3 mps 612 mmHg 39%
    10:00 +22°C° 0 mm 4 mps 613 mmHg 29%
    11:00 +24°C° 0 mm 3 mps 613 mmHg 27%
    12:00 +25°C° 0 mm 3 mps 613 mmHg 25%
    13:00 +26°C° 0 mm 3 mps 613 mmHg 22%
    14:00 +26°C° 0 mm 3 mps 613 mmHg 23%
    15:00 +26°C° 0 mm 3 mps 612 mmHg 23%
    16:00 +26°C° 0 mm 3 mps 612 mmHg 24%
    17:00 +23°C° 0 mm 2 mps 611 mmHg 31%
    18:00 +18°C° 0 mm 2 mps 610 mmHg 38%
    19:00 +15°C° 0 mm 1 mps 610 mmHg 45%
    20:00 +15°C° 0 mm 1 mps 610 mmHg 47%
    21:00 +14°C° 0 mm 1 mps 610 mmHg 50%
    22:00 +14°C° 0 mm 1 mps 610 mmHg 52%
    23:00 +13°C° 0 mm 1 mps 610 mmHg 53%

    Pasado mañana, 28 Mayo, Lunes

    Tiempo Temperatura Precipitaciones Viento Presión Humedad
    00:00 +13°C° 0 mm 1 mps 610 mmHg 54%
    01:00 +12°C° 0 mm 1 mps 610 mmHg 55%
    02:00 +12°C° 0 mm 1 mps 610 mmHg 56%
    03:00 +12°C° 0 mm 1 mps 609 mmHg 56%
    04:00 +12°C° 0 mm 1 mps 609 mmHg 56%
    05:00 +12°C° 0 mm 1 mps 610 mmHg 56%
    06:00 +12°C° 0 mm 1 mps 610 mmHg 56%
    07:00 +13°C° 0 mm 1 mps 610 mmHg 55%
    08:00 +16°C° 0 mm 2 mps 612 mmHg 47%
    09:00 +19°C° 0 mm 2 mps 613 mmHg 38%
    10:00 +24°C° 0 mm 3 mps 615 mmHg 30%
    11:00 +25°C° 0 mm 2 mps 614 mmHg 27%
    12:00 +26°C° 0 mm 2 mps 614 mmHg 25%
    13:00 +27°C° 0 mm 2 mps 614 mmHg 23%
    14:00 +27°C° 0 mm 2 mps 613 mmHg 22%
    15:00 +26°C° 0 mm 2 mps 613 mmHg 22%
    16:00 +26°C° 0 mm 1 mps 612 mmHg 22%
    17:00 +23°C° 0 mm 1 mps 611 mmHg 29%
    18:00 +20°C° 0 mm 1 mps 611 mmHg 35%
    19:00 +16°C° 0 mm 1 mps 610 mmHg 41%
    20:00 +15°C° 0 mm 1 mps 610 mmHg 43%
    21:00 +14°C° 0 mm 1 mps 610 mmHg 45%
    22:00 +14°C° 0 mm 1 mps 610 mmHg 47%
    23:00 +14°C° 0 mm 1 mps 610 mmHg 48%

    29 Mayo, Martes

    Tiempo Temperatura Precipitaciones Viento Presión Humedad
    00:00 +13°C° 0 mm 1 mps 610 mmHg 48%
    01:00 +13°C° 0 mm 1 mps 610 mmHg 49%
    02:00 +13°C° 0 mm 1 mps 609 mmHg 49%
    03:00 +13°C° 0 mm 1 mps 609 mmHg 49%
    04:00 +12°C° 0 mm 1 mps 609 mmHg 48%
    05:00 +13°C° 0 mm 1 mps 609 mmHg 48%
    06:00 +13°C° 0 mm 1 mps 609 mmHg 47%
    07:00 +13°C° 0 mm 2 mps 610 mmHg 46%
    08:00 +16°C° 0 mm 2 mps 611 mmHg 39%
    09:00 +20°C° 0 mm 2 mps 613 mmHg 33%
    10:00 +24°C° 0 mm 3 mps 614 mmHg 26%
    11:00 +25°C° 0 mm 2 mps 614 mmHg 24%
    12:00 +27°C° 0 mm 2 mps 613 mmHg 22%
    13:00 +28°C° 0 mm 2 mps 613 mmHg 21%
    14:00 +27°C° 0 mm 2 mps 613 mmHg 21%
    15:00 +27°C° 0 mm 2 mps 612 mmHg 21%
    16:00 +27°C° 0 mm 1 mps 612 mmHg 21%
    17:00 +24°C° 0 mm 1 mps 611 mmHg 29%
    18:00 +20°C° 0 mm 1 mps 610 mmHg 37%
    19:00 +16°C° 0 mm 1 mps 609 mmHg 44%
    20:00 +15°C° 0 mm 1 mps 609 mmHg 47%
    21:00 +14°C° 0 mm 1 mps 609 mmHg 51%
    22:00 +14°C° 0 mm 1 mps 609 mmHg 54%
    23:00 +13°C° 0 mm 1 mps 609 mmHg 54%

    30 Mayo, Miércoles

    Tiempo Temperatura Precipitaciones Viento Presión Humedad
    00:00 +13°C° 0 mm 1 mps 609 mmHg 54%
    01:00 +13°C° 0 mm 1 mps 608 mmHg 55%
    02:00 +13°C° 0 mm 1 mps 608 mmHg 54%
    03:00 +13°C° 0 mm 1 mps 608 mmHg 53%
    04:00 +13°C° 0 mm 1 mps 608 mmHg 53%
    05:00 +13°C° 0 mm 1 mps 608 mmHg 52%
    06:00 +13°C° 0 mm 1 mps 609 mmHg 50%
    07:00 +13°C° 0 mm 1 mps 609 mmHg 49%
    08:00 +18°C° 0 mm 1 mps 611 mmHg 41%
    09:00 +22°C° 0 mm 1 mps 612 mmHg 34%
    10:00 +25°C° 0 mm 1 mps 614 mmHg 26%
    11:00 +26°C° 0 mm 1 mps 614 mmHg 25%
    12:00 +27°C° 0 mm 1 mps 613 mmHg 23%
    13:00 +28°C° 0 mm 2 mps 613 mmHg 22%
    14:00 +27°C° 0 mm 2 mps 612 mmHg 23%
    15:00 +27°C° 0 mm 2 mps 612 mmHg 24%
    16:00 +26°C° 0 mm 3 mps 611 mmHg 25%
    17:00 +23°C° 0 mm 2 mps 610 mmHg 33%
    18:00 +19°C° 0 mm 2 mps 610 mmHg 42%
    19:00 +15°C° 0 mm 1 mps 609 mmHg 51%
    20:00 +15°C° 0 mm 1 mps 609 mmHg 54%
    21:00 +14°C° 0 mm 1 mps 609 mmHg 57%
    22:00 +13°C° 0 mm 1 mps 609 mmHg 60%
    23:00 +13°C° 0 mm 1 mps 609 mmHg 59%

    31 Mayo, Jueves

    Tiempo Temperatura Precipitaciones Viento Presión Humedad
    00:00 +13°C° 0 mm 1 mps 608 mmHg 59%
    01:00 +13°C° 0 mm 1 mps 608 mmHg 58%
    02:00 +13°C° 0 mm 1 mps 608 mmHg 56%
    03:00 +13°C° 0 mm 1 mps 608 mmHg 55%
    04:00 +12°C° 0 mm 1 mps 608 mmHg 54%
    05:00 +13°C° 0 mm 1 mps 608 mmHg 52%
    06:00 +13°C° 0 mm 1 mps 609 mmHg 51%
    07:00 +13°C° 0 mm 1 mps 609 mmHg 49%
    08:00 +18°C° 0 mm 1 mps 610 mmHg 42%
    09:00 +21°C° 0 mm 2 mps 612 mmHg 34%
    10:00 +25°C° 0 mm 2 mps 613 mmHg 26%
    11:00 +26°C° 0 mm 2 mps 613 mmHg 24%
    12:00 +27°C° 0 mm 2 mps 613 mmHg 22%
    13:00 +28°C° 0 mm 2 mps 613 mmHg 20%
    14:00 +28°C° 0 mm 2 mps 612 mmHg 20%
    15:00 +28°C° 0 mm 2 mps 612 mmHg 21%
    16:00 +27°C° 0 mm 2 mps 612 mmHg 21%
    17:00 +24°C° 0 mm 2 mps 611 mmHg 29%
    18:00 +21°C° 0 mm 1 mps 610 mmHg 38%
    19:00 +16°C° 0 mm 1 mps 609 mmHg 46%
    20:00 +15°C° 0 mm 1 mps 609 mmHg 49%
    21:00 +15°C° 0 mm 1 mps 609 mmHg 52%
    22:00 +14°C° 0 mm 1 mps 609 mmHg 54%
    23:00 +14°C° 0 mm 1 mps 609 mmHg 54%
    Mostrar más